Theta_e
356 358 357 355 354 350 348 345 324 329 330 316 317 321 318 332 330 329 326 330 325 333 335 335 333 331 332 328 329 330 331 326 326 320 317 339 355 353 358 360 357 358 358 360 361 362 364 356 356 356 356 356 356 356 355 356 355 356 355 355 355 354 355 354 355 354 358 358 361 362 363 362 362 362 363 363 362 360 359 360 357 351 355 354 358 364 364 363 362 362 362 361 362 362 362 362 362
355 358 354 352 350 348 337 345 326 323 323 316 319 321 324 328 330 323 323 329 327 330 333 333 333 337 333 331 331 332 332 334 335 332 339 348 351 353 356 358 356 356 359 361 360 360 361 360 352 353 354 354 354 353 354 355 354 355 354 356 356 354 353 354 353 357 359 360 360 362 362 363 362 362 363 362 360 358 358 357 357 356 356 355 354 356 361 363 362 361 362 361 362 363 363 363 363
355 354 351 351 347 344 343 342 322 320 315 311 318 322 330 326 323 326 331 331 332 332 333 335 336 336 331 331 328 331 323 337 337 338 339 347 344 351 358 357 358 358 359 361 358 359 360 360 353 354 354 354 353 354 353 355 355 356 355 354 352 352 355 354 357 359 358 358 360 360 361 361 362 363 362 361 362 361 360 358 357 356 355 355 352 354 357 361 362 361 361 361 361 362 363 362 362
356 355 349 347 338 346 331 329 324 319 313 315 316 323 327 324 326 332 335 333 333 333 333 331 334 336 334 327 328 333 332 332 339 338 338 343 347 352 357 357 361 358 358 359 359 357 359 361 354 351 352 354 355 355 355 355 356 359 357 356 353 353 356 357 356 358 358 360 360 361 361 361 362 362 362 361 361 360 358 358 357 356 355 356 354 352 353 357 362 361 360 360 360 360 361 363 363
352 351 353 346 342 332 331 323 325 323 314 318 314 325 328 329 330 332 332 334 333 332 333 333 334 340 339 335 336 329 331 337 339 342 343 349 352 355 357 358 357 356 356 359 361 361 363 359 352 352 353 353 352 354 356 357 356 358 360 358 357 358 357 359 355 358 359 359 360 361 360 359 361 361 361 360 360 359 358 358 356 356 355 356 357 353 352 357 360 361 361 362 361 361 361 361 362
350 354 359 351 336 344 333 321 322 320 325 326 319 324 330 331 332 333 332 334 334 334 335 336 331 330 331 334 338 330 336 330 339 342 346 347 353 356 357 358 355 355 357 360 360 361 362 361 355 355 355 353 355 356 357 359 359 358 355 357 359 361 360 359 359 359 358 359 358 361 361 360 361 360 360 360 360 358 357 356 356 356 355 356 356 355 353 356 361 361 361 362 361 360 361 361 361
345 345 349 347 343 343 324 322 321 323 327 335 326 327 330 332 334 333 333 332 334 334 336 334 335 333 328 334 336 342 345 343 341 342 348 351 354 356 356 355 356 357 358 360 361 362 361 361 357 357 357 357 358 359 360 360 360 359 359 359 360 361 360 360 357 356 357 358 358 360 360 361 361 360 359 360 360 359 358 357 356 355 353 354 353 350 352 356 358 361 362 362 361 362 361 361 361
348 340 341 332 328 331 324 325 324 326 326 338 333 330 334 335 334 334 332 331 328 331 334 335 336 333 330 340 329 341 346 349 347 350 350 353 354 355 355 354 354 355 356 359 361 365 365 361 361 358 361 360 361 360 361 360 359 358 359 359 359 359 360 360 359 359 359 357 358 358 360 360 360 360 359 359 361 360 358 357 357 355 353 351 350 350 353 360 361 361 362 362 361 360 359 359 360
354 348 349 335 324 331 324 322 325 332 330 334 337 339 338 336 337 335 332 334 333 332 334 335 335 330 331 333 333 341 344 349 349 352 351 351 352 352 352 351 352 353 353 355 360 361 362 359 358 357 357 360 360 360 359 359 358 359 359 359 359 360 360 360 359 359 358 357 360 360 361 359 360 359 358 358 359 359 359 357 357 357 355 352 351 350 354 360 362 362 361 361 360 360 360 361 361
348 345 331 332 328 321 323 322 322 327 330 334 334 337 338 339 338 339 336 333 333 332 334 337 335 333 333 328 332 337 342 347 348 349 350 350 352 352 351 353 353 350 351 356 361 361 363 360 357 358 358 359 360 359 358 359 358 359 359 359 359 358 359 359 359 358 358 358 359 359 360 361 360 359 358 358 357 358 358 358 359 357 356 355 352 353 356 359 361 361 360 360 359 359 359 359 360
335 344 343 330 323 320 320 322 325 330 331 334 336 339 340 340 338 337 337 336 335 334 334 335 333 331 331 333 337 347 347 345 345 344 349 351 352 352 352 354 352 352 353 356 360 360 361 360 360 359 359 358 359 359 359 358 359 359 359 357 357 357 357 359 358 358 358 358 358 360 360 360 360 359 358 358 358 357 358 359 359 357 357 355 354 356 358 360 360 360 361 360 359 360 360 360 359
332 334 337 323 320 320 323 323 325 328 331 333 332 340 341 339 339 335 337 333 334 332 333 335 331 334 330 331 334 344 344 343 344 347 350 351 351 352 352 352 353 353 355 360 361 360 361 363 360 361 359 359 359 358 358 359 359 359 359 358 357 358 358 358 358 359 358 359 358 358 359 360 360 358 358 358 358 357 357 358 357 358 357 356 356 357 360 362 361 361 361 360 359 359 361 361 361
336 336 331 325 324 325 327 326 326 328 328 330 331 340 342 338 336 336 335 336 336 333 332 338 336 333 325 331 341 343 341 345 346 348 349 351 351 351 351 352 353 355 359 361 360 360 359 360 361 363 361 359 359 359 357 358 359 359 357 356 357 357 358 358 358 358 358 359 358 358 359 359 359 358 358 359 360 359 357 356 356 357 357 355 354 357 360 360 359 362 362 361 361 360 360 360 361
338 337 335 324 330 327 325 326 327 323 324 334 340 340 340 338 340 339 336 333 335 335 337 339 336 334 331 334 336 337 341 346 347 348 350 350 350 350 349 351 354 358 360 360 359 359 359 360 360 362 363 364 363 361 358 358 358 358 357 358 357 358 358 358 358 358 359 359 359 358 360 359 359 358 358 360 360 360 360 358 356 355 354 356 357 359 361 361 361 360 360 361 361 360 360 359 359
339 342 334 328 325 326 328 322 321 321 325 334 339 338 339 342 339 337 336 334 337 341 339 341 339 331 325 327 330 336 341 346 348 349 350 349 349 349 350 353 356 359 359 359 358 359 358 359 360 363 365 362 363 363 361 360 357 357 357 356 357 356 359 359 358 359 358 358 359 359 360 361 360 359 359 359 361 360 360 359 356 354 353 355 359 359 361 361 361 361 362 361 361 361 361 361 360
342 339 334 324 322 322 322 325 328 323 325 336 338 340 338 339 341 336 340 341 338 340 341 332 338 335 330 328 333 339 343 347 349 350 348 348 349 349 352 354 355 356 358 359 359 359 360 362 362 361 362 363 362 361 364 364 358 357 356 357 358 357 358 359 359 359 359 359 359 359 359 360 360 361 360 361 361 361 359 359 360 359 360 360 359 360 360 360 360 360 360 360 362 362 359 359 360
342 340 328 324 321 322 324 326 324 319 330 338 340 338 333 335 342 343 345 344 337 336 340 334 334 337 332 334 340 343 346 349 351 349 349 348 347 347 352 352 352 354 357 360 361 360 361 362 362 362 363 363 361 361 362 364 360 359 358 358 359 356 359 359 360 359 358 359 359 359 359 366 365 363 364 363 360 361 360 359 359 360 361 361 361 361 362 362 362 362 362 363 362 359 358 358 357
338 329 325 321 323 322 326 326 326 334 331 336 337 337 336 333 337 340 343 340 339 337 336 337 340 340 341 343 344 345 347 348 349 345 345 343 344 345 347 349 348 349 353 356 361 361 361 361 362 363 363 363 362 362 362 363 362 362 360 357 361 358 360 360 362 360 359 362 359 360 364 365 363 364 363 360 361 363 362 361 360 361 362 363 364 364 364 363 362 362 361 361 361 361 359 361 360
331 328 326 322 325 325 332 332 331 331 332 337 337 338 337 336 338 339 337 335 334 333 333 336 337 340 342 343 344 345 347 348 347 344 341 340 341 343 345 349 348 347 350 354 358 358 360 362 363 363 363 364 363 362 361 363 365 365 364 362 363 360 363 365 364 362 362 362 363 361 363 362 361 365 365 362 363 362 362 362 363 363 363 363 364 363 362 360 360 360 361 361 364 364 363 355 356
333 327 321 325 332 335 335 335 334 340 340 336 337 338 338 339 338 343 337 333 333 330 329 332 334 334 337 340 343 345 348 347 346 342 340 341 343 345 344 345 345 347 348 350 352 357 359 360 362 363 364 364 363 362 362 361 363 363 361 362 363 363 364 364 365 365 364 364 363 363 361 363 362 363 365 364 363 357 361 362 360 360 361 359 360 362 360 361 362 363 365 368 364 365 358 354 354
332 328 324 327 333 330 334 337 336 338 342 338 338 338 339 338 340 341 337 330 331 331 331 330 332 335 337 340 343 345 346 345 344 342 342 342 344 345 346 346 346 347 350 351 354 356 359 360 362 363 364 364 363 362 361 360 362 358 359 362 363 363 364 364 364 365 366 364 364 361 359 359 356 359 360 358 354 355 356 358 361 360 361 363 363 360 357 357 363 358 361 367 356 355 353 357 356
330 326 328 331 337 331 338 338 338 338 341 340 338 335 336 342 339 339 336 326 324 331 332 333 336 338 338 340 342 344 345 344 344 343 343 343 344 344 346 347 348 349 350 350 352 357 358 359 362 363 363 364 363 362 361 362 362 358 361 361 362 363 362 361 361 363 362 363 360 356 358 359 357 356 357 356 357 360 360 357 360 363 363 361 361 358 355 358 357 357 358 357 355 356 354 356 356
322 332 332 335 337 333 337 340 341 340 340 338 336 338 340 337 336 340 338 337 335 339 336 336 339 340 341 343 343 342 343 344 344 344 344 344 344 345 346 347 347 346 348 350 354 357 359 361 363 363 363 364 364 364 363 362 360 361 361 360 361 361 361 361 360 360 362 364 360 358 352 352 350 351 355 358 357 359 360 360 360 363 361 358 359 356 358 360 360 357 360 359 357 354 351 355 355
326 322 330 336 341 336 339 339 343 340 340 338 340 342 336 334 332 339 337 338 340 339 337 338 340 342 343 341 342 342 342 344 344 345 346 345 345 345 346 346 347 349 349 350 352 357 358 358 363 362 362 363 365 365 364 361 362 360 360 362 361 359 359 358 358 359 361 360 363 361 354 351 349 349 354 355 356 360 361 363 364 360 361 357 360 360 359 358 357 357 360 360 356 357 351 353 351
327 327 334 337 338 340 340 340 340 341 341 343 342 336 335 337 337 338 336 337 337 338 341 340 341 342 341 340 340 341 344 344 344 346 347 349 348 348 348 349 349 349 347 349 351 353 357 360 361 360 361 361 361 361 360 361 360 360 358 358 359 361 361 359 358 360 360 361 361 361 358 350 352 351 353 354 359 362 363 364 361 359 361 360 362 358 360 359 358 358 359 359 359 359 355 354 353
330 332 336 338 336 336 337 336 340 341 343 343 337 336 339 342 342 336 337 339 340 340 340 340 340 340 339 339 341 343 345 344 345 346 347 348 348 347 347 349 349 348 348 349 351 353 357 358 357 358 359 360 359 357 358 359 359 358 359 360 361 360 358 357 359 354 354 354 355 362 358 353 352 353 357 360 361 363 363 363 362 361 359 361 360 360 359 359 359 359 359 361 357 359 357 356 356
336 335 337 339 336 334 336 337 340 343 341 341 337 337 337 341 337 331 339 341 339 339 339 340 339 337 338 339 341 344 344 345 345 347 347 348 348 347 347 348 348 348 350 349 351 354 357 357 357 360 360 361 358 355 358 359 359 358 358 357 358 357 357 358 357 353 353 353 359 366 364 362 357 356 359 363 362 363 363 364 362 363 362 360 363 360 362 361 359 358 358 359 361 360 357 355 356
336 336 337 339 338 336 337 338 339 342 339 342 339 335 338 338 336 330 337 342 341 337 338 337 337 337 338 340 342 345 345 346 348 346 345 345 346 347 347 348 348 349 349 349 352 356 355 355 356 358 358 359 359 356 359 358 358 357 358 356 355 357 358 354 353 355 356 355 358 362 364 364 365 363 366 365 364 363 362 361 363 364 362 362 364 361 361 363 363 362 362 364 363 362 358 355 357
336 337 331 335 337 333 335 334 335 336 334 342 342 335 332 333 329 340 341 342 341 339 337 336 336 337 339 340 341 344 346 348 348 346 345 347 349 349 346 348 348 349 351 351 353 354 353 354 355 357 357 358 357 355 355 356 356 355 355 355 357 357 357 355 353 354 357 360 363 363 365 365 369 366 364 366 366 362 363 363 362 364 364 365 362 362 362 363 363 362 360 361 361 360 355 355 352
340 338 335 328 328 328 336 339 337 336 337 340 339 317 321 330 335 342 342 341 341 340 338 336 336 337 338 339 340 342 346 348 347 348 348 348 349 348 348 348 349 350 351 353 353 352 354 355 355 355 356 356 357 355 356 354 355 355 356 356 359 357 354 353 354 356 356 357 361 365 363 366 367 367 367 366 364 361 363 365 364 362 365 364 364 364 360 360 361 361 359 359 356 357 352 354 351
333 336 331 326 320 319 332 336 338 334 337 338 337 319 322 330 336 342 342 342 340 337 338 337 335 336 337 337 338 340 345 348 347 348 348 349 349 350 349 350 350 351 351 352 353 354 355 356 355 354 356 356 356 356 355 355 355 354 354 355 357 356 355 351 350 354 356 358 359 361 366 366 367 368 369 367 365 363 362 362 363 363 365 365 362 362 362 362 363 362 359 359 358 353 352 354 352
331 321 320 322 317 319 332 336 335 329 331 336 332 320 325 328 335 341 342 341 341 337 338 337 335 335 336 337 337 339 343 346 348 349 349 349 349 349 350 349 351 351 351 352 354 354 353 355 356 355 355 356 357 357 357 357 356 356 356 356 358 357 355 353 351 354 358 360 361 363 367 368 367 368 370 368 364 364 361 362 363 366 366 364 364 363 364 363 362 361 363 360 354 351 354 351 354
323 317 317 314 318 322 325 334 336 337 331 335 331 320 323 328 334 339 342 341 340 338 337 336 335 335 336 336 335 338 342 344 347 348 349 350 350 349 350 349 350 353 353 352 353 354 353 353 355 353 353 354 356 356 359 360 359 358 358 356 355 359 357 357 359 360 360 361 360 359 366 368 369 368 369 368 368 364 362 364 363 364 365 364 362 360 361 362 364 356 363 363 361 357 351 347 350
313 320 315 318 314 316 318 329 336 336 333 327 331 326 326 329 334 336 341 342 340 337 337 336 335 335 336 336 334 336 341 343 344 347 348 350 350 349 349 351 350 352 354 353 353 353 352 353 355 355 356 355 356 357 360 359 358 360 359 358 360 359 356 355 359 360 360 358 361 361 366 367 368 369 368 368 366 365 365 365 366 367 365 364 362 360 362 363 365 362 361 363 362 359 352 351 349
310 312 313 316 318 320 318 319 331 334 333 328 326 325 325 328 333 334 338 342 340 338 337 335 335 334 336 334 334 336 339 341 343 347 348 350 350 349 348 350 349 351 352 354 354 354 355 354 357 355 356 356 357 359 360 359 359 360 359 358 360 361 363 359 358 358 358 360 357 364 367 367 368 369 368 367 368 365 364 366 367 367 366 364 364 363 363 363 363 361 361 362 366 360 355 353 351
313 315 314 314 311 313 315 324 334 333 327 325 324 323 325 328 330 332 335 341 339 339 339 336 334 334 336 334 333 335 337 338 344 347 349 350 351 350 349 349 349 350 350 354 354 355 355 355 357 357 357 355 358 358 359 356 356 357 355 357 356 358 359 359 362 359 361 360 360 361 367 368 367 369 368 368 370 367 365 365 367 368 366 364 363 363 362 364 362 363 358 358 360 359 357 355 353
316 316 314 313 314 317 326 328 331 337 328 325 325 325 325 325 329 331 334 337 338 338 337 336 335 334 334 333 333 335 337 338 343 347 349 350 350 351 350 349 349 349 352 353 353 353 355 354 356 355 357 358 356 355 355 353 354 357 357 352 350 354 358 359 358 359 359 359 362 363 366 364 368 368 368 369 367 364 366 366 367 367 368 366 365 365 363 364 366 365 362 365 357 357 354 353 350
313 313 311 313 315 312 324 324 332 335 328 324 327 326 325 325 330 332 334 335 334 335 336 336 335 335 335 333 332 334 337 340 343 346 347 349 350 351 350 349 350 348 351 353 352 352 355 354 355 356 356 359 355 355 355 356 358 356 355 351 350 352 355 355 357 359 359 360 367 367 369 368 369 369 370 369 369 367 364 364 366 367 366 367 365 366 366 366 366 363 361 358 359 352 352 351 348
310 309 311 310 314 318 327 328 329 333 330 325 328 323 323 327 330 331 331 332 336 337 338 338 336 335 336 333 333 335 336 339 342 343 346 347 349 350 350 349 348 348 350 351 353 353 353 354 355 358 356 357 356 357 357 358 359 357 354 354 352 351 357 358 357 360 361 360 363 368 370 370 370 369 370 369 368 367 365 365 367 367 368 367 364 363 365 366 363 361 361 353 352 355 352 352 355
309 309 309 310 317 312 306 325 328 330 328 326 326 322 323 328 330 329 332 334 334 337 340 340 340 336 335 333 333 334 335 338 339 342 342 345 348 351 351 349 348 347 348 350 351 352 352 355 356 357 357 357 358 361 359 360 360 361 363 358 359 355 354 361 364 363 363 362 360 363 368 371 368 367 367 367 367 368 368 368 367 368 369 367 364 364 365 363 364 362 361 358 356 352 350 352 354
309 310 309 309 310 313 314 316 325 327 331 332 326 322 321 324 322 324 330 335 332 333 336 339 340 340 338 336 334 336 336 338 339 340 343 344 347 348 350 350 349 346 346 349 350 351 350 353 356 359 358 357 359 360 361 362 360 361 363 362 360 360 360 356 356 354 358 360 361 359 363 365 367 368 367 368 368 368 369 370 369 367 368 365 363 365 363 361 361 364 364 364 357 352 349 351 354
307 310 310 311 313 312 319 323 322 320 320 328 326 313 312 321 323 325 327 327 328 333 333 332 338 339 338 334 333 335 337 340 340 340 342 344 346 348 351 351 349 348 347 348 350 351 352 353 356 360 359 359 357 360 362 361 359 357 356 354 352 351 351 351 349 349 351 352 355 359 363 362 364 367 368 369 369 368 369 368 369 369 366 366 365 366 364 361 363 363 366 362 360 362 356 352 351
305 307 313 312 314 317 320 320 321 313 310 323 327 311 307 319 320 322 325 325 327 333 334 334 337 339 336 335 334 333 335 337 340 340 341 342 345 347 349 350 349 347 348 348 349 351 352 354 357 358 362 362 359 361 361 361 359 358 357 353 352 351 351 351 356 352 353 356 361 360 362 362 364 364 366 369 368 371 371 369 370 368 366 366 367 366 364 361 360 364 363 364 363 362 363 356 351
304 317 314 316 315 317 319 320 321 317 324 327 324 323 311 312 318 324 325 323 326 328 331 334 336 337 336 336 335 334 334 336 337 338 340 342 345 346 347 349 349 347 348 348 347 349 353 356 358 359 361 361 363 364 362 361 359 358 357 355 353 352 349 353 355 358 360 362 361 363 362 363 363 363 367 368 371 369 370 371 370 370 367 367 363 365 363 363 364 367 366 367 366 366 363 358 354
309 318 319 315 316 321 320 318 319 321 317 312 318 324 313 311 320 326 326 320 323 325 329 332 333 337 337 335 335 335 335 336 337 337 338 340 344 345 347 348 349 348 348 348 348 349 352 356 359 361 361 362 362 365 362 361 361 359 358 356 354 355 355 354 357 358 359 361 359 363 365 363 364 366 365 367 368 369 367 371 373 370 369 367 364 365 364 364 365 364 367 366 366 365 365 363 361
313 318 319 320 320 320 322 314 319 320 315 307 314 322 309 308 319 319 324 321 320 323 328 332 335 337 337 335 336 335 335 337 337 338 339 341 343 344 346 349 349 349 348 349 349 349 352 356 359 360 361 361 362 363 363 362 361 361 358 356 356 356 357 359 359 357 359 362 358 363 364 364 363 364 364 365 368 367 368 371 371 369 365 365 365 368 366 363 365 365 364 366 367 365 364 363 362
321 317 314 316 316 318 319 317 316 316 306 310 319 322 316 306 317 318 317 319 323 325 326 330 335 337 338 338 335 335 334 336 337 337 339 341 343 344 345 346 350 350 350 349 349 350 351 354 357 359 360 360 361 362 362 361 361 360 358 358 357 357 358 359 360 359 360 362 359 360 362 363 363 362 362 366 365 365 367 370 368 367 368 369 366 368 367 363 362 363 364 367 368 365 364 364 361
317 313 310 311 312 316 314 314 317 305 302 312 319 321 321 306 313 320 324 329 327 329 327 329 333 336 337 338 335 335 335 335 337 337 337 339 341 342 344 346 348 350 350 349 348 350 352 354 356 358 360 361 361 361 361 359 359 360 360 360 358 360 360 358 359 358 359 360 360 359 362 362 364 363 362 362 362 361 368 369 370 369 367 368 368 368 367 366 364 364 364 366 367 368 366 365 361
311 312 309 302 302 306 299 308 303 302 301 315 319 319 313 311 315 322 325 328 330 331 332 329 331 333 336 338 337 335 334 335 337 338 337 338 339 340 341 344 349 351 350 350 348 349 352 354 356 357 359 361 361 361 361 361 360 360 359 359 360 361 360 360 360 359 360 360 360 361 364 361 363 362 363 360 359 363 368 369 369 368 369 368 371 371 370 368 370 365 365 363 365 365 366 366 362
310 308 306 301 297 296 293 300 304 304 309 316 319 322 311 314 317 323 323 328 332 333 335 336 331 334 337 338 339 336 334 334 336 337 339 339 340 341 343 344 348 350 350 350 349 351 352 353 356 357 359 361 362 361 360 361 361 361 361 359 359 360 360 362 360 359 359 361 361 361 360 358 360 360 359 359 359 362 364 367 370 369 372 370 370 372 372 371 371 369 368 366 363 368 367 366 365
307 310 306 303 302 298 295 299 297 298 302 314 320 312 307 307 316 324 325 327 332 335 335 338 334 335 339 340 340 337 334 335 336 337 338 339 340 343 342 345 348 350 349 350 350 352 354 354 356 358 358 360 361 360 360 361 360 361 361 360 359 360 360 360 360 361 362 361 359 359 362 359 358 361 360 364 364 364 367 369 369 369 370 372 371 370 365 370 373 371 369 369 369 365 367 367 364
311 311 312 305 302 307 300 306 305 303 303 307 314 309 314 314 328 330 330 329 332 335 334 336 336 333 337 338 338 336 334 334 335 337 338 340 342 343 343 345 347 349 350 350 351 353 353 355 357 358 358 359 359 361 361 360 361 361 363 362 360 361 361 361 362 363 363 362 363 362 363 364 363 363 366 367 364 367 367 368 368 367 371 370 371 370 368 368 373 369 370 370 368 363 365 367 367
314 313 305 305 313 311 309 311 310 309 305 300 311 313 317 323 326 326 326 327 330 333 332 333 333 332 334 336 337 337 335 334 336 337 339 342 342 344 344 346 346 347 348 350 353 354 356 356 356 357 358 359 359 361 360 361 362 361 362 362 361 360 360 359 358 361 359 362 364 363 361 361 364 366 363 365 365 368 369 368 367 364 368 372 370 369 368 370 372 368 365 371 368 364 367 368 365
315 307 310 318 320 317 310 299 305 304 299 301 311 305 308 312 305 325 325 323 324 329 331 332 333 333 331 334 337 337 334 335 338 340 342 343 344 345 345 346 348 346 347 351 354 356 358 358 358 357 357 358 357 358 358 360 361 361 362 362 362 361 360 357 359 359 361 362 363 362 364 361 362 363 362 361 365 366 368 367 368 368 368 368 369 368 368 369 372 368 367 369 366 369 367 367 366
314 312 320 307 303 301 309 307 296 297 298 300 304 308 308 310 311 322 322 323 323 325 329 331 330 332 330 331 335 337 336 336 338 340 342 343 344 345 347 348 350 351 350 352 355 356 359 358 356 356 356 356 356 356 356 358 359 358 358 360 360 360 360 360 360 363 363 361 360 361 361 362 362 365 366 366 366 364 366 367 369 368 368 367 368 367 368 370 371 367 365 364 366 368 367 366 368
318 320 313 318 313 310 307 308 306 306 299 300 299 305 301 314 318 323 323 325 326 326 326 327 330 332 333 331 333 336 336 336 339 341 342 341 342 346 348 349 351 352 352 352 356 355 355 357 355 355 357 357 357 355 356 356 357 358 357 359 361 362 362 360 362 364 361 360 361 359 361 359 361 363 364 364 364 363 365 364 362 362 362 364 365 363 364 367 369 368 365 361 363 369 366 367 365
310 310 310 312 311 315 312 312 306 304 302 300 300 298 304 316 325 327 327 328 327 328 328 329 329 332 334 335 332 338 340 339 340 340 340 341 342 343 348 351 352 353 354 353 355 354 354 355 355 357 356 354 354 354 356 358 358 359 359 359 358 359 358 359 359 361 361 361 362 362 360 361 364 363 364 362 363 365 366 364 362 364 362 364 367 366 365 367 368 370 368 366 367 369 369 364 366
309 308 308 310 310 306 301 300 309 306 302 297 299 298 306 321 331 327 327 330 329 331 330 330 331 331 334 336 337 335 337 338 339 338 339 341 343 344 347 351 350 351 352 354 354 355 355 354 353 356 353 354 354 355 358 360 361 359 358 359 359 358 359 358 357 360 359 358 360 361 363 364 362 364 365 362 364 363 364 364 364 364 366 364 367 369 365 365 367 366 366 362 362 368 370 364 363
Wind_Speed
10 9 7 3 2 1 3 4 2 5 6 7 8 3 7 4 8 8 9 9 8 6 4 10 9 5 3 5 4 2 4 3 6 3 4 6 8 11 9 10 13 12 11 9 7 7 6 7 6 8 7 8 7 6 6 6 7 8 10 9 12 12 11 9 8 10 8 6 8 11 11 11 12 13 14 14 14 13 12 14 20 11 9 8 8 14 15 15 14 14 14 14 15 16 16 15 14
7 5 4 3 2 2 2 1 3 5 4 7 7 8 8 7 6 10 11 6 7 7 10 10 7 5 1 3 4 9 10 10 9 10 9 9 10 9 10 10 11 12 10 9 8 6 6 7 6 5 6 6 5 4 4 7 5 6 8 10 12 10 10 6 9 8 10 8 9 10 11 13 13 14 14 14 14 14 13 13 14 13 13 11 10 8 14 15 15 14 14 14 14 15 16 15 15
5 5 4 3 1 4 2 3 4 6 6 8 7 8 7 7 10 11 8 8 10 10 12 10 7 4 6 3 7 6 8 7 12 12 10 10 10 7 8 10 10 11 11 8 9 6 6 5 7 5 5 4 3 4 4 6 8 7 10 11 10 7 10 10 10 12 11 6 9 10 10 12 14 14 14 15 15 14 14 12 13 12 12 14 9 8 8 14 14 13 13 13 14 14 14 15 15
5 4 2 3 2 2 2 1 6 4 6 7 9 9 7 10 12 10 7 11 10 12 10 10 4 4 2 7 6 6 9 8 10 12 10 8 6 10 9 10 11 9 9 7 8 9 7 10 6 6 6 5 6 6 7 7 8 10 12 12 13 9 10 12 10 13 11 10 11 9 10 12 14 14 14 15 15 15 14 14 13 13 12 11 11 10 6 9 13 14 13 13 14 14 14 14 13
5 4 2 3 3 2 2 3 3 2 8 4 9 8 8 11 12 10 10 10 10 11 9 7 5 5 9 8 4 3 7 10 10 8 8 9 11 10 10 10 10 10 9 9 7 7 9 14 6 3 7 6 5 6 8 9 10 9 12 14 14 16 12 11 13 13 14 10 10 11 11 13 13 14 14 15 15 14 14 14 13 14 11 11 12 6 6 4 11 12 13 13 13 13 13 14 12
3 1 2 3 2 2 3 4 5 6 5 5 10 9 10 11 11 11 11 9 9 10 7 4 3 8 6 8 7 9 6 5 7 8 9 10 12 13 11 9 9 9 9 8 7 7 9 15 13 11 9 6 8 10 12 13 10 8 12 5 10 8 8 11 13 10 14 11 8 10 11 12 13 14 14 14 14 14 15 14 15 16 11 10 11 7 4 2 8 11 12 12 11 11 11 9 10
2 3 2 5 4 4 5 5 5 6 7 5 10 11 11 11 11 12 11 10 9 9 6 4 8 10 8 8 11 9 8 9 7 8 8 12 12 12 11 9 9 10 9 8 7 8 11 13 15 15 14 15 13 11 9 10 9 8 7 8 9 9 9 10 15 11 12 12 9 10 13 13 12 13 13 12 14 15 14 14 17 17 12 12 11 4 6 1 7 10 12 10 10 11 10 8 8
2 1 6 3 4 6 5 7 7 4 6 6 8 12 11 11 11 11 11 10 10 8 6 6 4 7 8 1 6 7 7 7 11 10 14 12 12 11 10 9 9 9 9 8 7 7 10 9 8 10 11 8 10 10 9 8 11 7 7 8 8 9 10 10 12 12 12 12 12 11 13 14 13 13 13 13 13 14 14 14 15 17 14 11 9 6 10 1 8 11 13 12 11 10 8 7 10
4 7 2 3 4 2 5 7 7 7 9 8 9 10 11 11 9 10 10 6 10 7 7 6 5 3 7 10 10 8 8 10 11 13 12 13 12 10 7 8 8 8 8 8 8 8 8 8 6 7 8 9 9 9 9 9 10 9 7 8 9 9 8 9 11 12 10 11 12 13 13 14 14 13 13 13 13 14 15 15 16 16 13 11 9 2 10 2 7 10 12 12 11 8 7 8 8
5 2 3 3 2 5 6 7 7 7 8 7 9 9 9 7 8 7 8 9 7 9 6 4 3 8 9 11 11 7 8 11 13 12 12 12 11 9 9 8 8 8 8 8 6 8 7 10 10 9 11 11 11 10 9 8 9 10 10 8 10 8 7 8 10 12 11 11 11 13 14 14 14 13 13 13 13 13 14 14 16 18 14 13 12 7 5 3 6 8 10 11 8 8 8 7 4
4 4 2 4 6 7 7 7 8 8 8 7 9 8 7 6 7 8 7 7 7 7 7 5 7 10 9 10 8 7 10 11 12 12 11 11 9 9 8 8 8 7 7 9 7 8 7 8 11 10 9 10 10 10 9 9 10 10 9 10 12 11 7 9 11 12 11 11 12 13 13 14 14 13 13 12 12 14 14 13 14 17 16 13 10 9 7 6 6 7 8 8 7 8 8 6 2
4 2 4 5 5 6 7 8 9 9 9 8 8 6 4 6 7 8 9 9 7 7 7 6 6 9 10 10 8 8 10 11 11 11 10 10 9 9 8 7 7 7 7 7 7 8 8 7 9 10 9 10 10 9 9 9 10 10 10 10 10 12 10 10 12 12 11 11 13 12 13 13 12 13 12 11 10 12 13 14 14 13 13 11 10 9 8 7 6 6 7 7 7 7 7 3 10
6 2 5 5 4 2 9 9 8 10 9 8 9 5 3 6 4 6 6 7 7 7 7 3 9 5 8 8 8 10 11 11 10 11 10 8 9 7 7 7 7 7 6 5 7 7 9 7 7 8 9 11 10 9 8 8 9 10 9 9 10 10 11 11 12 12 13 13 13 14 13 13 12 11 11 12 11 11 12 12 11 11 10 8 6 6 7 8 7 7 7 7 6 5 4 6 8
5 3 6 2 2 5 5 8 9 8 7 9 5 7 4 4 4 5 6 7 6 4 4 8 6 5 11 11 9 9 10 11 12 11 8 9 8 7 8 7 8 7 6 6 7 6 6 8 8 7 8 7 8 8 8 8 9 12 11 9 10 10 11 12 12 13 13 13 13 14 14 13 12 10 9 10 10 10 13 13 13 11 8 6 8 8 8 7 7 7 7 7 6 5 7 7 7
4 3 5 3 4 4 4 6 7 8 8 9 7 8 6 5 5 4 5 8 6 4 6 4 4 8 7 10 10 10 11 13 12 11 10 9 8 8 8 7 7 6 5 5 6 6 5 8 7 7 6 7 7 6 7 8 10 11 13 10 10 10 9 12 13 13 13 13 13 13 13 12 11 9 7 6 8 14 15 17 15 11 12 13 8 8 7 7 7 6 6 7 6 6 6 7 5
3 5 4 5 7 5 3 4 5 5 8 8 8 8 8 7 3 5 4 2 7 6 4 5 2 4 9 6 12 15 15 14 12 11 10 10 8 8 7 7 7 7 6 5 5 5 5 5 6 6 6 7 6 6 6 7 10 10 13 13 12 12 11 12 13 13 13 13 12 12 12 10 8 8 9 10 12 13 12 10 12 10 8 7 7 7 6 6 6 6 6 6 6 6 4 4 4
4 2 5 3 8 7 8 2 6 4 10 9 10 10 8 7 5 6 5 8 10 7 2 5 4 2 7 9 15 17 16 13 12 12 11 9 7 7 6 5 6 5 5 5 4 5 5 5 7 6 7 8 8 7 7 7 8 11 12 13 12 12 13 14 14 13 13 12 12 11 9 7 7 7 6 10 12 11 12 11 10 9 8 8 7 7 6 6 6 6 6 6 4 4 2 4 5
5 4 5 3 3 3 2 5 3 2 9 9 10 9 9 9 7 7 8 8 7 7 6 6 7 9 11 16 16 16 15 14 13 12 10 8 6 7 6 5 5 5 5 5 5 4 4 5 7 7 7 8 8 6 6 6 7 7 10 9 8 10 11 12 10 9 9 8 11 8 6 5 6 7 9 10 9 10 10 10 9 9 8 7 7 6 6 6 5 5 4 3 3 3 5 5 8
4 2 4 5 6 1 3 4 3 6 7 8 8 7 8 8 9 8 6 9 9 9 9 9 12 13 14 16 16 16 14 13 13 11 10 9 7 7 6 5 5 6 5 5 5 5 4 5 6 7 8 7 8 7 6 6 7 7 8 9 8 9 8 8 8 9 7 8 8 6 5 7 7 8 7 8 9 11 9 8 8 8 7 6 5 5 4 4 3 3 2 2 5 6 7 2 1
3 4 3 5 5 5 4 3 5 2 5 9 9 7 6 10 7 7 5 9 8 8 9 11 12 15 16 16 16 15 14 12 11 10 10 8 7 7 6 6 5 5 5 5 6 5 4 6 7 7 8 7 7 7 7 7 7 7 7 7 7 7 7 7 7 7 7 7 7 5 6 7 8 8 9 10 10 8 8 9 8 8 8 6 3 5 6 5 4 6 6 7 6 7 2 1 2
3 4 4 3 4 3 6 3 3 2 6 9 8 8 7 9 7 6 7 7 6 5 8 9 12 17 17 16 16 14 13 12 11 10 9 8 7 6 6 5 5 5 4 5 5 5 5 6 7 7 7 7 7 7 7 7 7 6 6 7 7 6 6 7 7 7 6 6 6 5 7 6 7 6 6 5 5 5 6 6 6 5 5 5 4 4 4 5 7 5 5 7 3 2 2 2 1
3 4 4 4 2 4 7 3 4 4 6 9 9 10 8 7 7 6 7 2 4 6 8 8 12 16 18 17 16 14 13 12 11 10 9 8 8 6 6 5 6 5 4 5 6 6 6 6 6 7 8 7 7 7 7 7 7 7 6 7 7 7 7 6 6 6 6 5 5 6 7 7 6 6 6 6 6 5 4 5 4 4 5 5 3 4 5 3 3 3 2 2 1 2 3 3 3
3 5 3 4 5 6 3 2 6 7 8 9 10 8 8 9 6 6 5 4 4 6 8 9 12 15 15 15 14 14 13 12 11 10 9 8 7 7 6 6 6 5 4 6 6 6 6 7 7 7 8 7 8 8 8 7 7 7 7 7 7 7 7 7 7 6 6 5 6 6 6 7 7 7 6 5 5 4 4 4 4 4 4 4 3 5 4 3 2 3 3 2 1 1 4 4 3
5 3 5 3 5 5 2 7 8 8 9 9 7 8 9 9 7 6 4 4 5 9 8 11 13 14 15 14 13 13 12 11 11 10 8 8 7 7 7 6 5 5 5 7 7 7 7 8 7 7 7 8 8 8 7 7 7 7 7 6 6 7 7 7 6 7 6 5 5 4 5 6 6 6 6 5 5 4 3 3 3 4 4 4 3 3 4 3 3 3 3 2 2 2 4 4 4
2 1 3 4 5 5 2 5 8 7 7 7 8 9 8 7 5 8 4 6 8 10 10 12 14 14 13 13 13 12 11 11 10 10 7 6 6 7 6 6 6 6 7 7 7 8 8 7 8 8 8 8 8 8 8 7 7 8 8 7 7 6 6 6 7 7 6 5 5 4 4 5 6 6 5 5 4 4 3 3 3 3 4 4 3 3 4 3 3 3 3 2 4 1 3 4 3
2 4 3 4 7 4 4 3 7 7 4 6 9 7 5 3 7 6 6 6 9 11 11 13 14 14 13 13 13 11 10 10 10 9 8 7 7 7 7 7 6 7 7 7 8 8 8 8 8 9 8 8 8 8 7 7 7 8 8 7 7 6 6 7 7 6 6 6 6 5 3 4 5 5 5 4 4 3 2 3 3 3 4 3 2 3 3 2 2 2 3 3 3 2 4 4 2
2 5 5 5 9 5 4 6 7 7 5 6 7 7 6 4 7 6 4 9 10 11 12 13 13 14 13 12 11 10 10 10 10 8 8 7 7 7 7 7 7 7 7 7 8 7 8 8 9 8 8 7 7 8 8 8 8 7 7 7 6 7 7 6 6 6 6 6 6 5 5 2 4 5 4 3 3 2 3 2 3 3 3 3 2 3 3 2 2 3 4 3 3 3 3 4 2
4 5 7 6 10 7 8 5 6 5 5 2 6 6 4 4 1 0 10 9 10 12 12 13 13 12 12 12 11 9 9 8 7 8 9 8 7 6 7 6 7 8 8 7 7 7 8 9 10 9 9 7 7 9 8 8 8 8 7 7 7 7 6 6 6 6 6 6 6 5 3 3 4 5 4 2 3 1 2 2 3 3 3 3 2 3 3 2 2 2 4 3 2 1 3 4 2
4 2 2 7 7 7 6 4 2 2 4 2 2 7 5 6 6 4 12 10 10 10 12 13 13 12 12 12 10 9 8 8 7 7 8 7 7 6 8 7 7 8 7 8 8 8 9 9 9 9 9 8 8 9 8 7 8 8 7 7 7 6 6 6 6 7 6 6 5 4 4 4 2 3 3 2 0 2 3 2 3 3 3 2 3 3 2 2 3 2 4 2 2 2 4 4 4
3 3 1 8 3 5 6 4 4 4 3 1 4 6 8 11 10 7 11 11 11 10 11 12 11 11 11 11 9 9 8 8 7 6 6 7 6 7 8 8 8 7 7 6 9 10 8 7 7 7 9 9 8 8 7 7 7 7 7 7 6 6 6 6 7 7 6 6 6 4 4 3 2 2 2 2 2 2 3 2 3 3 3 2 2 2 2 3 3 3 3 2 3 3 4 3 4
4 1 5 3 7 1 4 4 7 7 4 3 1 6 4 9 9 8 10 12 13 11 11 12 12 11 11 10 9 9 9 7 7 8 7 7 7 7 8 9 8 8 7 8 9 10 9 8 7 7 8 9 7 8 7 7 7 7 7 7 6 5 6 7 7 7 6 6 5 5 3 3 2 2 1 1 1 0 2 3 3 3 3 1 2 3 2 3 4 4 4 3 3 4 4 3 4
2 4 5 2 2 3 5 5 8 7 4 4 3 7 3 7 10 10 10 12 12 11 11 12 12 11 11 10 10 10 9 8 7 7 7 7 7 7 9 9 9 8 8 9 9 9 9 9 8 9 9 9 8 8 7 6 6 6 6 6 6 6 6 6 6 6 6 5 5 5 4 3 2 1 1 1 1 1 2 3 4 3 2 1 2 3 2 3 3 4 5 4 3 4 2 5 4
3 5 3 1 2 5 6 4 5 3 8 7 10 4 5 1 6 9 11 12 13 11 11 12 12 13 12 10 10 9 9 9 8 8 8 7 7 7 8 9 9 8 9 10 9 9 9 10 8 11 11 9 9 8 7 6 6 6 7 7 7 6 6 6 5 5 5 5 4 6 5 3 2 1 1 0 1 1 1 3 4 3 2 3 1 2 2 3 4 4 4 4 3 2 1 5 4
4 0 2 3 2 0 2 4 3 5 6 7 10 7 2 2 6 8 11 12 13 11 12 12 12 11 11 10 10 10 9 9 9 8 9 8 7 8 8 8 9 9 9 10 10 10 10 10 8 9 9 9 8 7 7 7 7 6 5 6 5 5 5 6 5 5 4 5 5 5 4 3 3 2 1 1 1 2 2 3 3 3 2 2 1 2 2 4 4 5 4 4 4 3 3 3 4
4 2 1 3 2 3 4 2 5 5 5 5 8 10 9 2 6 7 11 12 13 12 12 12 12 12 11 10 10 11 9 9 9 8 10 9 9 8 8 9 10 9 8 10 9 9 8 8 7 8 9 9 8 7 7 6 7 6 5 6 6 4 3 4 4 4 5 5 5 6 4 3 4 2 2 1 1 1 2 3 3 3 2 2 1 2 4 4 6 6 5 4 2 4 3 4 4
3 5 4 4 4 3 4 4 4 3 4 4 7 8 11 7 7 7 9 12 14 12 11 10 11 12 12 10 10 10 9 10 8 9 10 9 8 9 9 9 9 9 8 9 10 9 8 9 8 8 8 8 8 7 6 6 6 6 6 6 6 5 4 4 4 4 4 4 5 6 4 3 3 3 2 2 1 1 1 2 3 2 3 3 3 4 3 4 5 5 6 6 3 0 2 1 2
6 6 5 4 5 4 5 4 2 1 4 5 6 7 6 9 9 10 10 11 13 13 13 11 11 11 12 11 11 10 11 10 9 10 10 10 10 9 9 9 9 10 9 10 9 10 9 9 9 9 8 8 7 7 7 7 7 6 6 7 7 6 4 4 4 5 5 5 5 5 4 4 3 2 2 1 2 1 1 2 2 3 3 3 3 4 5 5 4 3 2 2 3 3 3 1 4
8 6 6 4 1 3 5 3 3 2 5 3 3 6 7 9 8 10 9 12 14 14 13 13 14 12 11 12 12 11 11 9 11 9 10 10 9 10 10 9 10 11 10 11 10 10 10 10 10 9 8 8 8 7 7 6 6 6 6 5 5 6 5 5 4 4 4 6 4 3 3 3 2 2 1 1 1 1 1 1 2 3 2 3 3 2 3 2 3 4 4 2 1 3 2 4 5
7 6 4 5 2 1 4 1 3 2 5 0 3 4 5 6 8 8 8 12 11 11 12 13 14 13 11 12 12 12 12 10 10 10 10 10 11 12 10 10 10 11 11 11 11 10 10 9 9 9 8 8 8 8 7 6 6 6 6 5 4 4 4 4 4 4 4 5 5 4 2 2 2 2 2 2 2 1 1 1 1 3 3 2 2 2 3 2 2 3 3 5 5 1 2 3 3
8 6 6 5 4 7 1 5 0 4 4 2 1 3 2 5 6 7 8 7 11 11 11 12 11 12 13 13 13 12 12 11 11 11 11 11 11 11 10 10 10 11 11 11 11 11 10 8 9 9 9 9 8 7 7 7 6 5 2 4 3 2 4 3 3 3 3 3 4 4 4 3 3 2 2 2 2 1 1 1 2 2 2 2 2 2 1 1 0 1 4 4 5 5 2 3 2
10 9 6 7 5 2 5 4 2 1 5 6 4 3 2 5 6 6 6 7 4 3 11 10 11 11 11 11 13 13 13 12 11 12 11 11 11 12 11 11 11 11 12 12 12 11 9 11 10 9 8 9 8 8 8 7 6 6 4 3 4 2 2 3 4 5 4 4 4 5 5 4 3 2 2 2 1 2 1 1 1 2 2 1 1 1 1 1 2 2 2 2 3 6 4 3 2
8 10 9 7 5 6 1 1 3 5 6 8 6 4 2 6 9 7 5 6 10 11 11 14 12 12 12 12 13 14 12 12 11 12 11 11 11 11 11 12 12 11 12 12 12 12 11 11 11 10 8 8 9 9 9 7 6 6 6 6 5 5 5 5 5 5 6 5 5 4 5 5 4 4 3 1 2 1 2 1 1 0 2 2 0 2 2 1 2 1 3 3 3 4 5 5 3
9 2 2 2 1 1 2 3 4 6 4 5 4 7 2 4 8 10 9 9 12 12 11 13 12 11 12 12 12 13 14 13 12 10 11 12 12 12 12 12 13 13 12 12 12 12 12 11 12 11 9 8 8 9 10 7 7 7 7 7 6 5 5 4 3 4 4 4 3 4 3 4 3 3 4 3 2 2 1 1 1 0 1 1 1 1 1 2 1 2 2 2 4 4 2 3 3
10 6 3 2 5 3 2 3 4 7 1 3 4 4 6 4 6 9 9 12 14 15 16 15 10 13 13 13 13 13 14 14 12 12 12 11 12 12 13 13 12 12 12 12 12 11 12 11 12 11 9 8 8 9 10 8 8 7 7 6 5 5 5 4 4 3 2 1 3 2 3 3 4 3 2 3 3 3 2 1 1 0 0 1 0 1 0 1 2 2 2 2 2 2 3 3 4
4 1 3 5 1 1 3 4 5 4 6 5 7 5 4 3 3 9 13 12 14 17 16 16 17 16 14 15 15 14 14 14 13 12 13 13 12 13 13 13 12 12 12 12 12 11 12 11 11 11 10 9 8 9 9 9 8 7 7 6 5 4 4 4 4 3 3 3 2 2 1 2 3 3 3 3 3 2 3 1 1 0 0 1 1 2 1 2 2 2 1 1 0 1 2 2 3
7 3 1 1 2 3 3 4 5 4 6 7 3 7 5 3 6 7 9 9 11 15 16 15 16 16 15 15 15 15 14 13 13 13 12 12 12 12 13 12 12 11 12 12 12 11 12 11 12 12 11 9 9 10 9 9 9 7 7 6 6 5 4 2 2 3 2 3 3 3 3 2 3 4 4 4 3 3 3 3 2 1 2 1 2 2 1 0 1 1 1 2 3 3 2 2 3
4 8 8 6 6 5 4 5 4 5 8 5 3 7 5 4 5 8 11 12 15 12 12 15 17 16 16 16 16 14 14 14 13 13 13 13 13 12 12 12 12 11 10 12 12 11 12 12 12 12 12 9 10 10 10 10 9 8 7 7 7 6 5 4 3 4 3 4 3 4 3 3 3 2 2 4 4 4 4 2 3 2 1 1 2 2 2 2 1 1 1 2 1 2 1 2 3
9 8 9 5 5 5 6 5 5 7 7 4 1 4 6 6 3 7 11 7 10 12 15 19 18 18 16 15 15 16 15 14 14 13 14 13 13 13 12 12 12 12 11 12 12 12 11 11 12 13 12 11 10 11 11 10 9 9 8 8 7 6 5 4 4 4 4 4 4 3 2 2 2 3 3 2 4 4 4 3 2 2 2 2 2 2 1 2 2 1 1 1 1 1 2 2 4
11 8 8 7 6 2 7 6 8 8 6 5 2 4 5 9 8 3 10 11 9 13 11 15 17 19 18 17 17 16 15 16 15 13 13 13 13 13 14 13 12 12 10 12 13 12 12 11 12 13 13 12 11 11 11 11 10 9 9 8 8 6 6 5 4 5 4 4 3 3 4 3 3 3 3 4 4 4 3 3 2 1 1 1 1 2 2 1 2 3 1 2 1 2 2 2 3
9 11 9 9 10 8 9 8 7 6 2 2 4 3 8 6 5 7 8 11 12 13 12 11 15 18 19 17 17 16 16 16 15 15 14 13 13 13 13 13 12 11 12 12 12 12 11 11 12 13 13 12 11 11 11 11 10 9 9 9 8 6 6 6 5 5 5 4 3 3 4 4 4 4 4 3 3 3 3 2 2 2 1 1 2 2 2 2 1 3 2 2 4 1 2 3 4
11 6 10 9 10 8 9 7 8 7 3 5 5 6 1 2 4 2 1 6 10 12 11 9 12 16 17 17 17 19 17 17 15 15 15 14 14 14 14 13 13 13 13 12 11 11 11 11 12 12 12 13 12 12 11 11 10 10 9 9 8 7 7 6 6 5 4 5 4 4 3 4 3 3 3 2 2 2 3 3 2 3 2 2 2 3 3 3 2 2 2 3 4 3 3 4 4
7 7 7 11 11 3 8 7 4 4 5 7 7 4 1 2 5 4 1 3 8 10 11 9 11 14 15 15 17 17 17 17 16 15 15 15 15 14 13 13 13 13 14 12 13 12 12 11 12 13 13 12 12 12 11 10 10 9 10 10 9 8 7 6 6 5 5 5 5 4 4 4 3 2 2 3 4 4 4 4 4 4 3 3 4 3 4 3 2 3 2 3 4 4 3 4 4
4 5 8 7 3 8 7 8 8 4 5 8 5 5 5 1 7 8 6 6 8 10 11 12 13 14 15 15 15 17 17 16 15 15 14 15 15 15 14 14 13 13 13 13 13 12 13 12 12 13 13 12 13 12 12 10 10 10 10 10 10 9 9 9 8 8 8 7 5 5 5 5 4 4 4 4 5 4 4 4 4 4 3 3 4 4 4 3 3 4 4 3 4 5 4 4 5
3 7 6 4 2 2 3 2 6 5 7 4 2 4 6 1 1 4 8 8 9 11 11 12 11 11 14 14 14 14 17 16 16 15 14 15 14 15 14 14 14 14 14 14 14 13 13 12 13 14 14 14 13 13 13 12 11 11 10 11 11 10 10 10 9 8 7 6 6 6 5 5 5 5 5 3 3 4 4 4 4 4 4 4 3 3 3 4 3 4 4 4 5 4 4 4 5
2 8 4 6 7 10 8 5 8 6 5 4 5 6 5 4 2 4 7 8 9 11 11 11 12 11 13 13 15 16 17 17 15 14 12 13 13 14 14 14 14 13 14 14 14 14 13 13 13 13 14 15 14 12 12 11 12 10 9 11 12 11 10 9 8 7 6 6 7 7 7 5 5 5 4 4 4 5 5 5 5 5 5 5 5 5 4 4 4 4 4 5 5 4 4 5 5
6 6 6 2 4 3 3 2 7 5 7 5 4 7 4 2 3 5 3 1 4 8 11 12 14 14 12 12 12 15 17 15 13 13 13 13 14 15 15 15 14 14 14 13 14 14 15 14 14 13 13 13 14 14 12 13 12 11 10 10 10 10 10 9 8 7 7 7 7 7 7 7 7 5 6 6 6 6 5 5 6 6 5 5 5 5 5 4 4 4 4 5 1 1 4 5 5
6 8 8 4 3 2 5 4 7 7 7 6 7 6 3 3 6 7 6 4 4 5 8 10 11 14 15 13 13 13 14 13 11 11 10 12 13 15 15 14 13 13 13 13 13 14 13 13 13 14 14 15 15 14 13 12 11 11 11 11 11 11 12 10 10 9 9 8 7 7 7 6 6 6 5 6 6 6 5 5 5 4 5 3 3 4 3 4 4 4 5 5 5 4 4 5 5
9 6 6 8 9 7 7 7 6 9 8 4 6 7 3 4 4 6 7 5 3 4 6 7 10 12 14 13 12 12 11 11 12 11 12 13 14 15 14 13 13 13 12 13 13 12 13 13 13 14 14 14 14 13 12 11 11 11 12 12 11 11 11 11 11 10 10 9 8 7 7 6 7 7 6 7 6 6 7 6 6 5 5 5 4 5 6 5 5 5 6 6 6 6 5 5 5
Wind_Direction
168 187 184 155 182 284 262 203 228 162 209 111 117 145 89 88 105 122 106 140 124 120 96 122 126 142 9 56 65 98 41 27 30 325 84 94 128 116 118 130 132 128 126 123 119 118 108 83 69 64 62 62 59 66 74 84 93 104 105 106 101 113 130 132 127 152 139 100 88 98 104 106 100 94 92 86 82 88 78 65 94 104 41 31 94 106 103 100 98 95 95 94 95 95 96 96 95
177 168 162 147 210 217 179 208 279 159 142 111 90 110 113 118 154 115 127 133 110 131 135 130 116 56 134 85 83 131 79 48 45 90 94 107 116 111 122 129 131 125 120 124 118 114 108 110 83 76 69 75 77 93 95 95 120 113 114 104 112 128 126 130 143 139 115 109 103 102 105 99 97 94 89 90 87 85 86 78 88 98 87 52 4 84 107 102 94 94 94 94 91 90 93 93 93
176 170 157 135 312 247 314 232 230 134 140 124 106 101 130 131 114 113 108 102 120 134 133 123 109 139 121 149 96 350 91 72 95 103 109 124 123 118 128 128 124 122 124 124 126 125 120 113 118 99 107 119 132 120 109 138 141 143 119 115 106 108 144 167 162 120 114 105 100 98 104 106 100 97 98 96 95 97 96 96 93 86 89 85 36 357 79 96 97 96 92 90 94 91 88 90 91
176 192 182 216 200 206 208 214 259 147 136 108 115 126 127 117 109 103 101 117 127 138 136 140 127 29 305 109 60 90 88 89 87 112 122 153 115 133 137 125 127 127 123 126 124 130 135 137 137 148 155 142 152 160 155 161 152 159 144 134 134 170 173 151 131 113 113 128 112 101 100 102 101 100 103 102 98 96 101 99 95 91 81 82 81 12 9 89 100 101 97 93 90 89 89 87 90
197 177 255 238 297 215 262 247 282 219 121 138 122 131 123 116 112 112 120 128 142 142 154 130 113 81 68 56 26 46 69 96 109 115 114 103 121 131 132 133 134 127 126 122 128 120 118 119 131 179 152 163 172 177 164 153 161 175 140 148 157 165 155 130 125 130 123 118 111 113 112 102 97 100 103 103 101 101 101 98 90 87 77 64 73 58 340 60 92 102 104 104 101 98 94 90 93
218 250 196 246 246 353 247 215 196 82 45 55 125 126 121 119 122 120 125 134 145 144 146 165 81 142 105 53 22 86 106 127 114 112 114 118 125 130 130 141 131 127 122 127 129 134 127 133 151 160 175 169 171 177 166 155 140 128 107 163 134 129 124 118 107 105 117 110 109 112 105 99 99 99 104 102 101 103 100 101 99 88 70 74 61 51 327 60 90 96 93 93 92 92 94 91 89
187 233 14 230 245 213 228 192 101 93 85 356 110 123 127 127 123 128 129 132 150 148 167 116 110 121 114 113 88 57 77 114 142 111 114 123 126 129 139 137 131 124 131 137 131 127 129 140 147 157 157 161 161 140 123 117 116 107 125 137 122 128 125 118 112 126 117 119 124 106 102 103 101 100 99 98 106 104 103 104 98 92 87 78 82 62 278 84 91 95 98 92 88 85 84 81 99
245 219 194 184 196 204 212 91 83 96 107 58 101 119 125 133 139 136 144 148 154 165 178 135 133 77 79 230 87 84 84 62 97 112 115 125 131 135 137 136 134 131 132 133 123 109 119 120 136 138 135 130 131 120 119 124 117 126 130 117 119 120 119 114 111 116 116 125 122 118 112 108 102 97 98 101 103 107 103 98 96 99 99 96 96 98 265 260 84 88 87 88 83 79 77 68 97
218 236 237 265 195 214 146 100 89 63 103 108 79 94 121 137 148 144 153 151 149 163 160 153 119 144 105 104 87 91 83 104 104 116 125 127 133 135 138 140 135 132 139 133 127 135 121 115 119 113 126 144 130 124 133 131 117 127 119 119 109 108 110 110 114 115 116 118 115 111 108 105 101 98 101 107 106 107 109 108 105 103 109 112 100 176 254 64 70 80 89 90 88 81 72 79 85
233 237 215 251 22 145 113 108 132 95 99 103 118 125 129 141 143 162 140 145 152 153 142 131 119 96 123 108 117 127 106 115 123 124 126 129 129 135 134 131 132 138 138 114 137 122 113 112 108 113 137 137 125 125 130 124 124 126 127 120 112 98 106 118 116 116 122 116 116 111 107 103 100 102 103 106 112 112 110 113 112 109 115 132 133 177 234 97 75 71 79 85 89 77 81 84 45
274 180 272 251 181 132 149 115 106 125 112 107 108 119 125 135 146 143 149 133 141 144 136 151 130 124 119 99 85 82 117 128 134 127 129 126 130 134 127 132 137 139 132 137 138 122 129 116 108 108 112 115 114 121 131 129 127 127 126 124 126 129 134 125 124 114 111 116 113 106 102 102 103 104 105 110 113 109 109 109 109 117 134 130 143 184 165 116 102 96 95 100 95 98 97 83 70
281 209 208 253 109 221 106 117 121 111 119 130 118 128 134 145 145 139 139 144 149 148 143 172 122 132 119 119 113 129 132 139 127 127 129 135 135 126 130 133 133 135 129 133 126 122 115 127 122 113 110 110 114 122 127 131 128 130 132 128 123 129 135 128 119 116 116 111 105 104 104 100 100 107 114 114 114 110 110 114 114 117 113 134 157 163 143 133 125 119 116 116 107 104 97 103 85
296 296 238 254 56 33 97 128 121 133 136 135 132 119 144 148 161 137 139 131 140 149 149 142 137 161 123 115 113 132 142 129 129 131 136 138 125 129 132 128 135 118 120 128 116 117 128 122 116 113 108 115 115 119 128 126 129 122 112 117 122 129 131 124 115 114 114 109 110 111 103 103 103 108 116 117 115 123 119 111 113 109 104 116 155 180 132 122 115 129 131 110 101 100 176 99 87
302 332 300 66 0 91 151 108 137 145 145 113 105 130 146 145 99 117 126 135 138 127 90 131 161 117 112 119 138 149 136 138 132 135 134 127 125 129 132 130 123 129 125 119 113 116 119 118 110 115 124 115 113 120 113 116 126 121 125 120 123 123 121 117 116 117 112 111 110 111 110 106 102 103 108 112 117 137 134 121 109 101 95 141 175 139 108 100 98 95 101 122 124 122 90 86 89
311 310 281 64 137 134 57 135 165 156 122 138 118 143 118 80 121 121 131 123 93 101 107 134 111 176 153 162 151 151 141 141 137 134 130 126 126 124 129 124 124 118 119 113 112 118 113 103 118 122 120 118 119 120 128 136 130 121 126 125 121 116 119 120 117 113 113 115 117 114 112 106 108 113 108 100 119 113 115 123 114 126 160 191 134 102 102 100 96 95 95 94 98 95 85 80 89
327 279 251 177 150 158 173 145 145 166 127 144 139 137 120 105 87 130 60 63 117 130 189 124 169 336 152 153 145 134 138 139 138 135 129 126 128 134 134 135 130 127 122 113 110 110 109 105 111 117 122 117 121 118 121 119 121 128 121 124 123 128 128 121 118 115 113 113 111 110 108 119 126 124 132 126 113 102 98 99 119 133 125 104 108 104 104 103 101 100 100 99 91 85 95 94 93
295 328 264 226 126 207 150 143 155 147 129 128 141 152 140 125 96 73 108 128 137 116 91 117 124 219 126 115 127 130 134 135 140 136 131 135 151 143 142 144 141 132 122 119 120 107 109 115 113 109 107 110 112 118 118 116 118 120 115 117 116 126 124 121 115 118 120 118 116 113 128 136 126 119 155 113 110 96 101 105 112 117 119 113 118 120 113 108 104 101 97 94 102 106 145 165 155
280 252 280 98 32 65 50 118 146 9 150 140 160 166 142 135 138 120 137 128 113 132 128 109 95 92 106 113 126 129 133 143 145 147 146 144 157 147 150 144 152 138 137 126 117 121 118 116 111 112 111 117 125 120 113 114 116 117 113 122 124 115 118 118 121 122 120 121 123 133 136 130 114 117 106 102 98 108 104 112 119 126 126 128 119 118 106 99 99 92 96 101 76 198 211 210 183
312 350 340 59 96 174 234 86 110 181 153 147 157 168 161 138 147 156 161 143 145 137 133 127 110 113 118 127 129 134 143 146 153 152 150 145 154 144 146 140 149 139 137 132 125 123 115 110 109 109 112 120 118 113 111 116 121 116 111 113 112 120 123 120 122 130 135 135 136 141 134 115 110 92 85 88 92 90 105 117 126 127 127 123 117 107 109 107 113 135 132 185 206 213 231 178 174
45 305 46 62 48 113 102 161 162 305 136 154 158 163 166 142 155 164 174 152 157 151 145 145 134 134 137 135 138 141 147 149 152 151 148 150 147 144 143 148 141 139 137 132 121 116 119 118 115 117 120 124 124 119 126 122 121 123 124 128 122 128 130 129 132 134 137 146 136 130 111 101 96 96 100 113 129 132 134 144 147 139 133 122 192 171 167 153 180 187 194 208 215 217 168 199 108
29 279 44 19 40 280 130 131 211 195 181 156 161 153 148 163 145 179 150 155 162 157 153 150 148 145 143 144 143 147 149 150 155 151 145 147 148 143 143 141 140 138 128 120 119 122 124 121 121 119 124 123 122 122 127 125 128 125 122 125 128 130 131 130 127 131 132 128 118 116 106 105 107 111 120 130 122 117 117 128 143 121 107 102 195 119 137 126 189 142 174 202 165 147 138 116 81
276 21 356 8 331 283 68 102 223 207 176 159 156 165 155 140 164 185 170 18 128 161 145 151 148 147 146 148 146 150 152 154 152 152 147 148 143 141 132 130 126 135 132 132 121 132 131 125 122 124 128 131 129 129 120 121 131 122 124 123 125 123 121 122 126 123 121 118 126 111 110 113 120 116 128 124 122 126 121 101 103 106 108 107 139 124 102 118 119 118 103 88 81 118 104 60 63
281 112 38 20 28 341 159 218 195 204 168 165 168 163 143 172 164 177 185 50 42 129 140 137 141 146 144 145 148 152 154 154 149 150 144 144 144 143 139 135 145 143 150 127 134 129 128 128 129 134 132 134 127 121 126 133 118 119 127 124 125 126 130 132 128 124 118 128 114 120 130 131 129 129 125 125 120 116 109 108 99 103 107 105 117 107 112 111 89 104 90 89 100 97 95 123 122
302 16 19 46 23 0 23 190 166 192 166 166 163 150 169 173 161 167 166 78 124 136 141 130 136 145 145 147 153 152 152 153 146 142 145 138 140 141 140 138 137 131 147 137 139 138 138 132 136 137 132 131 128 132 125 122 127 128 117 130 128 123 131 127 124 117 122 118 112 114 130 130 131 127 125 123 119 108 94 97 103 99 108 105 104 99 105 98 103 83 80 93 72 57 88 70 94
246 74 60 27 40 11 99 144 170 160 162 149 145 174 167 180 137 156 120 115 134 128 131 137 141 145 150 149 152 150 152 151 143 138 132 129 134 131 133 130 139 150 147 147 138 137 132 133 143 136 134 134 131 133 125 124 128 129 131 125 117 129 118 114 113 126 125 122 115 129 138 130 131 126 120 109 103 93 90 88 95 104 96 102 119 108 94 90 74 81 80 89 81 58 94 94 121
2 59 55 69 52 33 111 220 148 140 125 153 168 157 140 115 131 151 120 126 134 137 140 142 147 150 152 154 150 151 155 150 143 145 140 139 138 142 145 145 147 156 146 144 139 135 141 144 142 135 132 134 133 128 123 122 122 121 120 118 115 127 116 116 134 132 127 133 128 109 97 117 114 114 106 103 92 86 86 99 98 94 101 97 101 89 76 75 98 93 79 62 68 62 85 91 68
84 96 73 65 90 115 205 129 113 120 122 160 167 160 155 144 216 138 143 145 145 150 143 148 154 154 155 154 152 153 158 151 153 142 141 144 147 151 148 152 156 140 142 150 139 139 137 148 136 131 127 131 131 123 123 122 121 122 122 122 126 122 123 135 132 127 130 117 111 107 103 86 113 99 96 91 94 100 111 90 86 101 101 91 72 82 80 49 45 48 46 38 54 66 74 84 76
121 109 101 90 92 88 60 56 84 125 78 255 192 146 146 162 208 169 158 156 161 152 150 153 158 155 155 152 153 154 155 153 148 155 152 158 155 158 155 154 148 144 147 152 142 144 146 142 133 134 132 130 128 126 128 125 125 123 127 130 123 118 136 128 122 116 109 107 111 112 107 85 55 75 60 53 70 71 77 88 91 85 81 86 61 54 36 22 45 38 60 52 62 110 112 102 97
124 220 163 115 113 100 126 117 109 80 112 26 68 141 175 190 204 162 150 161 163 161 153 158 157 156 158 155 155 159 154 159 162 161 160 153 153 158 155 157 149 152 146 150 146 150 141 138 132 135 130 136 139 132 131 132 131 134 133 128 125 135 134 131 124 119 114 118 116 109 104 98 69 84 71 46 105 78 73 60 99 78 83 58 60 28 36 353 50 40 64 83 68 116 97 117 141
166 204 231 148 87 109 113 130 144 160 83 30 246 207 197 189 191 150 157 160 165 171 160 162 158 161 160 163 159 162 155 163 174 155 153 150 159 156 152 153 154 151 141 148 154 150 140 135 143 138 138 142 144 131 134 135 135 129 131 124 129 141 130 125 123 121 124 128 125 120 116 97 83 62 54 61 322 92 101 97 74 87 77 63 86 37 19 36 41 29 39 67 87 74 90 63 79
225 142 237 278 133 356 131 184 163 177 134 215 241 237 182 173 190 163 165 168 171 173 167 167 162 164 163 168 164 165 157 173 166 154 155 152 159 155 151 150 159 145 152 155 155 145 147 143 146 139 148 138 148 131 147 133 137 136 131 134 134 134 132 135 130 131 138 131 135 124 116 111 102 86 47 339 94 9 123 93 85 78 56 25 62 63 338 31 31 22 32 30 83 100 90 72 52
228 229 208 131 62 243 148 182 173 206 155 185 193 241 197 176 168 168 176 174 181 179 173 171 167 167 167 170 168 168 161 168 169 151 153 160 160 155 156 152 161 152 157 152 148 154 149 143 154 142 147 149 138 143 139 137 137 137 127 128 133 143 136 129 133 138 131 132 135 125 129 129 124 102 18 335 316 105 90 95 85 77 71 70 44 59 340 40 21 37 22 22 38 61 135 111 106
183 274 347 320 15 126 146 180 167 264 140 183 208 229 126 260 165 173 182 179 187 187 178 177 173 171 170 172 172 169 159 163 170 159 154 167 158 160 156 158 157 159 154 155 156 155 154 141 164 148 151 148 146 145 143 142 140 132 142 148 133 149 144 133 134 133 140 140 145 128 139 145 125 133 140 284 250 129 105 109 105 85 73 65 11 53 32 33 9 46 33 19 31 342 20 104 111
195 139 286 353 325 328 92 131 188 179 188 184 207 239 202 96 181 187 187 187 190 195 183 181 176 173 174 175 175 167 166 165 170 163 158 166 159 160 158 157 153 167 149 161 159 159 161 148 164 150 146 152 149 147 149 151 143 140 150 132 144 149 144 143 137 138 143 131 144 128 135 152 141 147 142 129 339 47 68 65 73 62 68 59 28 72 33 25 16 19 31 32 8 343 22 44 71
45 346 265 218 174 94 50 9 114 194 194 230 190 215 212 170 171 206 194 192 197 198 187 185 177 175 174 179 178 167 171 171 164 169 158 160 160 163 158 159 157 166 162 160 162 158 159 156 150 150 154 155 148 148 153 150 141 158 147 148 143 149 148 132 136 141 143 153 133 127 150 159 130 145 126 131 199 152 122 88 78 62 63 65 31 58 56 35 7 12 3 42 349 11 8 19 40
14 347 346 313 302 35 12 57 116 238 198 227 212 219 218 195 177 208 208 199 201 200 190 188 183 175 176 183 177 173 171 170 161 162 156 160 161 165 158 164 160 164 166 155 161 163 161 158 155 156 164 155 151 153 163 162 160 166 159 154 157 161 151 143 149 141 136 140 127 144 138 119 127 126 130 118 99 25 74 93 76 71 64 68 42 38 41 44 15 11 15 353 4 9 97 15 49
282 292 306 315 308 109 130 105 83 182 256 221 224 229 217 208 197 198 207 201 205 202 193 190 187 178 179 183 177 176 170 170 160 157 158 159 163 165 162 164 164 162 165 158 169 166 166 165 161 163 166 162 160 164 170 173 165 168 163 169 161 158 154 148 157 150 149 126 123 116 142 133 126 134 135 158 121 121 88 78 79 53 54 57 48 35 48 24 24 336 15 318 338 24 47 121 79
269 285 279 295 261 311 61 21 94 187 267 111 194 224 214 220 186 199 207 207 204 203 195 191 187 183 181 184 177 180 169 168 158 159 163 162 165 167 166 168 169 165 168 166 174 170 170 169 166 165 166 169 171 172 171 178 170 175 171 172 160 150 153 168 151 165 146 123 124 132 162 99 122 138 142 147 132 161 129 118 90 66 60 61 44 51 51 40 24 357 351 329 10 24 45 20 51
262 261 304 285 162 212 71 50 136 130 257 44 147 233 229 204 180 192 205 218 210 217 205 195 189 184 182 184 180 178 176 173 164 166 171 168 167 170 170 172 172 171 171 171 172 171 172 172 169 169 168 173 175 174 177 177 176 168 179 165 163 159 159 167 152 148 143 139 147 152 134 141 174 148 158 171 163 173 117 76 111 95 55 57 48 55 60 40 28 8 343 19 337 86 71 81 47
252 248 241 251 43 306 204 144 154 180 256 341 155 259 233 185 167 204 221 228 231 209 226 203 196 192 187 185 181 181 182 173 175 174 173 171 168 173 174 174 175 173 172 174 174 173 173 174 171 174 171 176 173 172 184 176 170 162 173 167 155 168 162 123 104 141 162 154 162 160 165 172 201 174 156 177 138 123 109 67 62 84 96 65 61 50 45 91 325 45 14 26 343 308 68 64 39
232 238 257 266 282 321 305 17 160 259 227 256 247 231 246 195 190 204 209 217 328 296 262 226 202 204 196 188 186 186 184 179 181 178 178 173 172 177 178 176 175 178 177 177 179 174 177 173 173 176 173 177 175 169 181 175 164 174 162 147 165 129 144 164 175 171 177 176 193 174 159 175 172 192 155 155 136 115 87 89 68 80 83 40 70 159 192 28 12 39 62 356 42 335 352 21 44
252 240 241 264 286 292 278 231 262 228 203 181 237 275 171 185 195 199 189 194 205 218 213 223 208 200 196 196 194 185 187 184 192 183 181 176 179 175 178 179 180 180 182 179 185 176 178 171 172 176 174 181 178 172 180 177 179 181 179 178 182 182 176 179 183 177 173 175 188 147 144 171 168 176 169 177 115 122 119 92 76 356 108 116 40 12 20 226 172 324 63 352 8 37 346 329 4
256 184 47 179 199 274 226 253 263 274 327 88 221 293 307 163 205 197 182 189 211 204 208 215 205 204 200 198 198 190 187 187 193 189 186 185 180 178 180 184 185 184 180 181 184 178 180 171 173 177 178 181 181 173 181 186 185 190 191 192 186 185 177 175 178 177 163 168 134 140 139 149 165 202 170 171 150 143 146 106 102 231 81 141 147 185 208 292 83 63 19 28 13 17 337 331 324
246 77 243 175 231 211 241 277 273 287 115 157 270 247 288 258 200 199 175 188 207 213 206 206 210 213 203 200 200 195 190 192 188 191 191 193 183 184 184 183 191 184 180 181 182 180 179 175 172 178 178 183 184 172 182 187 190 193 195 204 189 200 185 165 172 189 153 131 144 169 144 148 155 204 177 160 203 177 188 174 139 127 307 59 139 193 289 13 17 61 55 32 7 7 337 1 338
269 68 193 230 202 187 227 260 279 310 310 270 190 185 251 256 123 171 179 197 210 219 213 209 205 209 206 204 205 198 196 194 194 191 192 194 188 187 186 186 190 184 181 181 181 179 177 177 175 177 179 183 183 179 182 186 195 193 198 196 199 203 201 180 183 184 180 183 193 163 182 157 154 171 206 198 188 206 205 196 189 229 234 193 221 198 214 77 7 20 3 275 223 347 0 17 321
195 197 194 180 171 167 235 263 274 269 273 284 264 178 277 284 145 168 185 209 216 215 210 212 207 200 200 204 207 202 197 198 199 197 194 195 192 192 188 186 186 186 179 179 181 179 175 177 178 180 182 183 182 183 188 186 195 198 202 209 196 199 204 210 212 188 196 207 213 192 191 212 216 175 172 202 189 213 211 202 215 207 225 203 277 37 344 312 196 186 258 353 10 348 351 301 303
126 197 206 198 208 208 200 250 258 266 261 264 96 182 256 304 169 180 172 203 204 200 208 208 205 201 201 201 203 202 198 198 199 197 196 196 197 192 189 187 184 185 179 177 182 180 177 178 179 183 186 188 185 186 189 191 196 201 207 207 209 211 208 211 211 206 206 205 218 212 196 200 227 234 206 165 202 203 189 209 237 201 268 119 249 247 235 268 228 181 141 102 269 313 324 333 280
194 201 213 203 232 223 230 222 226 258 259 80 284 203 208 261 146 189 203 204 202 186 198 202 196 197 200 198 203 203 199 197 198 199 197 195 198 193 191 189 184 185 181 178 184 180 181 179 179 183 186 190 189 188 192 196 199 202 210 208 213 219 221 219 222 225 216 215 217 217 210 214 221 213 221 203 206 201 173 207 220 233 221 246 220 244 295 311 311 330 192 245 211 211 282 282 313
217 194 222 214 217 193 242 226 232 222 262 122 139 173 216 231 262 203 198 205 185 189 196 211 199 192 197 197 199 204 199 197 197 197 199 198 198 194 189 188 187 185 187 184 185 181 182 182 181 184 187 190 192 192 192 198 202 202 204 206 210 215 221 230 233 232 218 222 218 211 197 218 203 222 219 218 205 209 182 201 234 243 233 256 311 330 309 291 317 301 346 279 306 270 252 278 272
222 218 203 211 226 221 247 229 245 247 153 184 176 196 253 288 253 234 227 210 197 182 192 215 213 197 194 195 196 202 200 199 198 195 199 199 197 195 190 189 187 186 190 189 190 184 183 184 184 187 187 189 192 196 194 197 202 205 202 206 206 205 214 221 226 230 219 222 218 238 238 207 202 215 210 211 241 209 211 203 213 222 222 254 249 251 269 295 323 301 297 291 275 291 307 277 266
223 224 222 230 241 238 245 248 239 247 276 146 136 225 272 242 102 72 316 214 192 177 179 196 223 215 200 198 195 200 200 199 198 198 197 198 199 194 192 189 187 189 192 190 192 186 185 187 184 188 188 189 193 197 198 200 201 203 203 206 208 209 211 213 221 224 234 225 231 223 223 243 219 197 206 199 223 220 223 223 219 246 215 231 244 244 243 232 239 254 274 289 301 282 270 290 289
225 234 239 229 241 296 261 290 276 244 273 242 172 252 316 325 109 127 192 145 163 160 172 180 210 229 220 207 201 198 201 197 198 199 198 197 197 195 194 192 191 191 192 192 193 189 191 189 186 190 191 190 194 197 202 203 205 204 204 207 210 212 216 219 214 216 220 236 230 241 222 229 242 225 199 203 199 203 210 222 217 224 227 231 228 231 247 253 226 248 260 270 264 264 259 262 270
124 206 228 243 304 266 272 249 263 263 265 273 249 255 239 167 199 182 159 159 167 166 175 188 202 215 224 221 207 199 200 199 198 198 197 196 195 196 196 196 195 193 193 195 193 189 193 190 189 190 192 193 194 196 201 205 205 209 206 209 213 210 212 217 215 210 223 215 224 225 222 221 206 220 227 198 212 192 212 218 231 248 205 231 238 230 239 231 232 248 244 237 255 269 274 268 274
194 236 191 84 354 299 153 276 264 236 245 291 342 272 279 254 329 132 178 194 180 181 184 189 192 207 220 216 208 199 197 199 199 198 195 195 194 196 197 198 198 195 193 193 193 192 190 194 192 192 193 196 196 195 199 200 203 207 209 211 213 219 218 218 222 221 213 216 206 217 226 208 216 207 213 227 195 197 199 218 238 238 253 250 255 248 227 232 232 249 250 251 265 278 274 274 272
189 238 356 217 199 216 208 235 264 255 259 263 249 257 270 289 265 162 202 208 199 193 184 183 193 198 216 221 212 204 201 198 194 189 187 191 193 194 197 199 198 197 194 191 192 192 191 195 196 197 198 197 199 197 198 201 203 206 208 210 212 212 220 223 222 222 226 218 218 200 213 211 209 200 197 213 220 217 205 201 213 233 217 227 228 233 230 246 246 253 257 256 238 238 256 265 267
296 322 271 258 310 299 231 199 283 264 269 281 263 285 277 272 14 342 10 338 246 205 188 195 195 191 200 219 212 208 205 195 182 183 189 194 198 197 196 197 196 195 195 193 192 194 197 196 196 199 201 200 202 203 197 202 203 208 208 205 208 212 212 220 219 217 218 215 215 215 209 203 211 207 201 199 213 224 217 216 206 212 223 223 219 220 228 225 239 257 269 268 265 223 255 262 274
211 212 228 178 230 21 294 216 245 258 262 255 285 279 257 58 353 336 323 310 285 256 207 198 200 192 192 205 216 204 194 180 174 178 183 190 198 202 197 197 196 195 195 194 191 199 202 199 196 197 200 202 201 205 201 202 205 207 209 208 205 203 209 209 216 211 219 218 213 216 211 217 197 213 211 203 206 214 217 221 240 244 238 224 231 258 249 250 244 243 244 254 272 265 262 263 258
178 172 258 213 214 188 214 244 214 258 255 259 271 276 311 70 339 346 311 320 311 255 239 207 204 198 185 193 212 207 192 181 180 184 192 197 201 205 200 196 199 196 195 196 194 199 202 201 200 197 199 203 203 202 204 200 207 205 210 206 210 202 205 209 213 211 213 211 212 206 213 214 211 204 208 211 211 211 204 216 222 214 223 228 216 216 242 236 235 234 244 237 224 221 232 253 265